Portada
METAR-TAF:

METAR-TAF

Aeroports :

Galesburg Municipal Airport

Galesburg, Illinois, Estats Units d'Amèrica

latitud: 40-56-17N, longitud: 090-25-52W, altitud: 233 m

Observació

L'informe es va fer fa 23 minuts, a les 19:55 UTC
Vent 10 kt del Sud/Sud-Oest amb ràfegues de 17 kt
Temperatura 25°C
Humitat 54%
Pressió 1005 hPa
Visibilitat: 16.1 km
Núvols disperses a una alçada de 3400 ft

METAR: KGBG 071955Z AUTO 21010G17KT 10SM SCT034 25/15 A2968 RMK AO2 T02510148

Hora: 15:18 (20:18 UTC)


TAF: manca

Observacions i pronòstics meteorològics de més de 4000 aeroports (METAR i TAF).

Les estacions disponibles són els punts grocs i vermells al mapa.

Posi el ratolí al punt desitjat per veure el nom de l'estació.

Feu clic per veure les observacions i els pronòstics meteorològics.

Per canviar el mapa: feu clic els botons verds amb una creu de color negre per apropar; al botó verd amb un guió per allunyar la imatge; o en les fletxes verdes per a mapes adjacents.


METAR-TAF: